This demonstration page uses our WeatherBlox Daily Observations layout. Learn more.

Left ArrowRight Arrow

Hourly Observations for April 28, 2016

Temp ( °F °C ) Dew Point ( °F °C ) Humidity (%) Winds ( mph kmh ) Pressure ( in mb ) Visibility ( mi km ) Precip ( " mm )
12:53 am 00:53 Clear 57 13.9 42 5.6 58 58 NW 9 15 29.87 1012 10 16 0.00 0.00
1:53 am 01:53 Clear 56 13.3 43 6.1 62 62 NW 6 9 29.88 1012 10 16 0.00 0.00
2:53 am 02:53 Clear 55 12.8 42 5.6 62 62 NW 7 11 29.88 1012 10 16 0.00 0.00
3:53 am 03:53 Clear 56 13.3 41 5 57 57 NW 7 11 29.88 1012 10 16 0.00 0.00
4:53 am 04:53 Clear 56 13.3 40 4.4 55 55 NNW 9 15 29.89 1012 10 16 0.00 0.00
5:53 am 05:53 Clear 56 13.3 41 5 57 57 NNW 6 9 29.90 1013 10 16 0.00 0.00
6:53 am 06:53 Sunny 55 12.8 41 5 59 59 NNW 6 9 29.92 1013 10 16 0.00 0.00
7:53 am 07:53 Sunny 59 15 42 5.6 54 54 Calm 29.93 1014 10 16 0.00 0.00
8:53 am 08:53 Sunny 63 17.2 43 6.1 48 48 NNW 8 13 29.93 1014 10 16 0.00 0.00
9:53 am 09:53 Sunny 67 19.4 41 5 39 39 N 9 15 29.91 1013 10 16 0.00 0.00
10:53 am 10:53 Sunny 69 20.6 41 5 36 36 N 13 20 29.92 1013 10 16 0.00 0.00
11:53 am 11:53 Sunny 71 21.7 41 5 34 34 NNE 9 15 29.91 1013 10 16 0.00 0.00
12:53 pm 12:53 Sunny 74 23.3 40 4.4 29 29 N 8 13 29.89 1012 10 16 0.00 0.00
1:53 pm 13:53 Sunny 76 24.4 40 4.4 27 27 NE 9 15 29.87 1012 10 16 0.00 0.00
2:53 pm 14:53 Sunny 78 25.6 39 3.9 25 25 VRB 6 9 29.85 1011 10 16 0.00 0.00
3:53 pm 15:53 Sunny 80 26.7 33 0.6 18 18 N 15 24 29.84 1010 10 16 0.00 0.00
4:53 pm 16:53 Sunny 81 27.2 33 0.6 18 18 NNE 16 26 29.82 1010 10 16 0.00 0.00
5:53 pm 17:53 Sunny 80 26.7 30 -1.1 16 16 N 16 26 29.83 1010 10 16 0.00 0.00
6:53 pm 18:53 Sunny 78 25.6 36 2.2 22 22 NNE 7 11 29.83 1010 10 16 0.00 0.00
7:53 pm 19:53 Sunny 72 22.2 38 3.3 29 29 N 6 9 29.84 1011 10 16 0.00 0.00
8:53 pm 20:53 Clear 71 21.7 34 1.1 26 26 NNW 7 11 29.87 1012 10 16 0.00 0.00
9:53 pm 21:53 Clear 64 17.8 40 4.4 41 41 NNE 5 7 29.90 1012 10 16 0.00 0.00
10:53 pm 22:53 Clear 63 17.2 40 4.4 43 43 NNE 6 9 29.91 1013 10 16 0.00 0.00
11:53 pm 23:53 Clear 65 18.3 37 2.8 36 36 NNW 6 9 29.93 1014 10 16 0.00 0.00

Powered by AerisWeather